Location: Madrid
(40.4000°N, 3.6830°W)
Time: 09:02:39
(UTC+01:00)

ISS - Pass Details

Date: 15 November 2017
Orbit: 402 x 407 km, 51.6° (Epoch: 21 November)

Event Time Altitude Azimuth Distance (km) Brightness Sun altitude
Exits shadow 06:28:01 30° 348° (NNW) 760 -2.7 -17.7°
Maximum altitude 06:29:01 38° 30° (NNE) 627 -2.8 -17.5°
Drops below altitude 10° 06:32:06 10° 101° (E) 1,450 0.3 -17.0°
Sets 06:34:15 0° 109° (ESE) 2,306 1.7 -16.6°
